Location: La Brionne
(46.1728°N, 1.7849°E)
Time: 11:26:42
(UTC+00:00)

USA 267 - Pass Details

Date: 24 October 2021
Orbit: 1101 x 1107 km, 123.0° (Epoch: 25 November)

Event Time Altitude Azimuth Distance (km) Brightness Sun altitude
Exits shadow 19:41:15 - 183° (S) 3,434 5.7 -30.0°
Reaches altitude 10° 19:43:02 10° 194° (SSW) 2,949 5.5 -30.3°
Maximum altitude 19:47:29 19° 237° (WSW) 2,337 5.3 -31.0°
Drops below altitude 10° 19:51:57 10° 281° (W) 2,960 6.4 -31.8°
Sets 19:55:18 0° 299° (WNW) 3,922 7.2 -32.3°
